Cape Girardeau, MO

4:21 AM CDT on August 23, 2017 (GMT -0500)
Cape Girardeau Regional

Weather History for KCGI - October, 2012

Change the Weather History Date:

Saturday, October 6, 2012

  Actual Average Record
Temperature  
Mean Temperature 45 °F 61 °F  
Max Temperature 56 °F 74 °F 89 °F (2007)
Min Temperature 34 °F 48 °F 29 °F (1964)
Degree Days  
Heating Degree Days 20 6  
Month to date heating degree days 44 32  
Since 1 July heating degree days 90 81  
Cooling Degree Days 0 2  
Month to date cooling degree days 2 12  
Year to date cooling degree days 1766 1434  
Moisture  
Dew Point 36 °F    
Average Humidity 67    
Maximum Humidity 92    
Minimum Humidity 41    
Precipitation  
Precipitation T in 0.13 in 1.06 in (1998)
Month to date precipitation 0.24 0.70  
Year to date precipitation 21.62 35.03  
Sea Level Pressure  
Sea Level Pressure 30.22 in    
Wind  
Wind Speed 6 mph (North)    
Max Wind Speed 14 mph    
Max Gust Speed 21 mph    
Visibility 10 miles    
Events      
T = Trace of Precipitation, MM = Missing Value Source: NWS Daily Summary

Daily Weather History Graph

Daily Weather History Graph

Search for Another Location

Airport or City:

Trip Planner

Search our weather history database for the weather conditions in past years. The results will help you decide how hot, cold, wet, or windy it might be!

Date:

Astronomy

Oct. 06, 2012 Rise Set
Actual Time 6:58 AM CDT 6:33 PM CDT
Civil Twilight 6:32 AM CDT 6:59 PM CDT
Nautical Twilight 6:02 AM CDT 7:29 PM CDT
Astronomical Twilight 5:31 AM CDT 7:59 PM CDT
Moon 10:54 PM CDT (10/6) 12:47 PM CDT (10/6)
Length of Visible Light 12h 26m
Length of Day
11h 34m
Waning Gibbous, 65% of the Moon is Illuminated
Oct 6
Waning Gibbous
Oct 8
Last Quarter
Oct 15
New
Oct 21
First Quarter
Oct 29
Full

Hourly Weather History & Observations

Time (CDT) Temp. Windchill Dew Point Humidity Pressure Visibility Wind Dir Wind Speed Gust Speed Precip Events Conditions
12:53 AM 43.0 °F 39.5 °F 39.9 °F 89% 30.19 in 10.0 mi North 5.8 mph - N/A   Clear
1:53 AM 42.1 °F 38.4 °F 39.0 °F 89% 30.20 in 10.0 mi North 5.8 mph - N/A   Clear
2:53 AM 42.1 °F 37.1 °F 37.9 °F 85% 30.20 in 10.0 mi North 8.1 mph - N/A   Clear
3:53 AM 39.9 °F 36.7 °F 37.0 °F 89% 30.20 in 10.0 mi North 4.6 mph - N/A   Clear
4:53 AM 39.0 °F 34.0 °F 36.0 °F 89% 30.22 in 10.0 mi NNW 6.9 mph - N/A   Clear
5:53 AM 39.0 °F 36.8 °F 36.0 °F 89% 30.24 in 10.0 mi North 3.5 mph - N/A   Clear
6:53 AM 37.9 °F 35.5 °F 35.1 °F 89% 30.25 in 10.0 mi North 3.5 mph - N/A   Clear
7:53 AM 37.9 °F - 36.0 °F 93% 30.26 in 10.0 mi Calm Calm - N/A   Clear
8:53 AM 44.1 °F 42.5 °F 37.9 °F 79% 30.26 in 10.0 mi Variable 3.5 mph - N/A   Clear
9:53 AM 46.9 °F - 35.1 °F 63% 30.27 in 10.0 mi NNE 4.6 mph - N/A   Clear
10:53 AM 51.1 °F - 37.0 °F 59% 30.25 in 10.0 mi NNE 6.9 mph - N/A   Clear
11:53 AM 54.0 °F - 33.1 °F 45% 30.23 in 10.0 mi NNE 10.4 mph 18.4 mph N/A   Clear
12:53 PM 55.9 °F - 32.0 °F 40% 30.22 in 10.0 mi North 11.5 mph 16.1 mph N/A   Clear
1:53 PM 54.0 °F - 30.0 °F 40% 30.22 in 10.0 mi NNE 6.9 mph - N/A   Clear
2:53 PM 52.0 °F - 33.1 °F 49% 30.20 in 10.0 mi North 5.8 mph - N/A   Overcast
4:53 PM 51.1 °F - 35.1 °F 54% 30.17 in 10.0 mi North 9.2 mph - N/A   Overcast
5:53 PM 50.0 °F - 33.1 °F 52% 30.20 in 10.0 mi North 8.1 mph - N/A   Overcast
6:53 PM 48.9 °F - 35.1 °F 59% 30.20 in 10.0 mi NNW 6.9 mph - N/A   Overcast
7:53 PM 48.0 °F - 34.0 °F 58% 30.23 in 10.0 mi NNW 9.2 mph - N/A   Overcast
8:53 PM 46.9 °F - 35.1 °F 63% 30.24 in 10.0 mi North 6.9 mph - N/A   Overcast
9:53 PM 46.0 °F 43.9 °F 36.0 °F 68% 30.23 in 10.0 mi North 4.6 mph - N/A   Overcast
10:53 PM 46.0 °F 43.9 °F 37.9 °F 73% 30.23 in 10.0 mi NNW 4.6 mph - N/A   Overcast
11:53 PM 44.6 °F 42.2 °F 37.4 °F 76% 30.23 in 10.0 mi NNW 4.6 mph - N/A   Scattered Clouds